Adak, AK

2:15 PM HST on November 21, 2017 (GMT -1000)
Adak

Weather History for PADK - February, 2013

Change the Weather History Date:

Friday, February 8, 2013

  Actual Average Record
Temperature  
Mean Temperature 30 °F -  
Max Temperature 33 °F 37 °F 43 °F (1951)
Min Temperature 26 °F 28 °F 11 °F (1964)
Degree Days  
Heating Degree Days 36    
Moisture  
Dew Point 19 °F    
Average Humidity 70    
Maximum Humidity 86    
Minimum Humidity 45    
Precipitation  
Precipitation 0.01 in - - ()
Sea Level Pressure  
Sea Level Pressure 29.60 in    
Wind  
Wind Speed 21 mph (NNW)    
Max Wind Speed 30 mph    
Max Gust Speed 38 mph    
Visibility 8 miles    
Events      
Averages and records for this station are not official NWS values.
T = Trace of Precipitation, MM = Missing Value Source: NWS Daily Summary

Daily Weather History Graph

Daily Weather History Graph

Search for Another Location

Airport or City:

Trip Planner

Search our weather history database for the weather conditions in past years. The results will help you decide how hot, cold, wet, or windy it might be!

Date:

Astronomy

Feb. 08, 2013 Rise Set
Actual Time 9:13 AM HST 6:49 PM HST
Civil Twilight 8:37 AM HST 7:24 PM HST
Nautical Twilight 7:57 AM HST 8:04 PM HST
Astronomical Twilight 7:18 AM HST 8:43 PM HST
Moon 7:57 AM HST (2/8) 5:37 PM HST (2/8)
Length of Visible Light 10h 46m
Length of Day
9h 35m
Waning Crescent, 3% of the Moon is Illuminated
Feb 8
Waning Crescent
Feb 9
New
Feb 17
First Quarter
Feb 25
Full
Mar 4
Last Quarter

Hourly Weather History & Observations

Time (HST) Temp. Windchill Dew Point Humidity Pressure Visibility Wind Dir Wind Speed Gust Speed Precip Events Conditions
12:16 AM 30.2 °F 17.1 °F 26.6 °F 86% 29.28 in 8.0 mi North 21.9 mph 32.2 mph N/A   Overcast
12:36 AM 30.2 °F 16.5 °F 24.8 °F 80% 29.30 in 10.0 mi North 24.2 mph 33.4 mph N/A   Overcast
12:56 AM 30.2 °F 16.8 °F 26.6 °F 86% 29.32 in 5.0 mi North 23.0 mph 34.5 mph N/A   Overcast
1:16 AM 30.2 °F 17.4 °F 23.0 °F 75% 29.33 in 9.0 mi North 20.7 mph 31.1 mph N/A   Overcast
1:36 AM 30.2 °F 17.1 °F 26.6 °F 86% 29.35 in 2.0 mi North 21.9 mph 31.1 mph N/A   Overcast
1:56 AM 30.2 °F 16.5 °F 24.8 °F 80% 29.37 in 10.0 mi North 24.2 mph 36.8 mph N/A   Overcast
2:16 AM 30.2 °F 16.2 °F 23.0 °F 75% 29.39 in 10.0 mi North 25.3 mph 32.2 mph N/A   Overcast
2:36 AM 30.2 °F 15.7 °F 24.8 °F 80% 29.39 in 3.0 mi North 27.6 mph 32.2 mph N/A   Mostly Cloudy
2:56 AM 28.4 °F 14.4 °F 23.0 °F 80% 29.41 in 9.0 mi NNW 23.0 mph 33.4 mph N/A   Mostly Cloudy
3:16 AM 28.4 °F 13.3 °F 23.0 °F 80% 29.42 in 10.0 mi North 27.6 mph 33.4 mph N/A   Overcast
3:36 AM 28.4 °F 14.4 °F 23.0 °F 80% 29.44 in 5.0 mi North 23.0 mph 29.9 mph N/A   Overcast
3:56 AM 28.4 °F 13.8 °F 21.2 °F 74% 29.44 in 9.0 mi North 25.3 mph 33.4 mph N/A   Overcast
4:16 AM 28.4 °F 14.7 °F 21.2 °F 74% 29.45 in 10.0 mi North 21.9 mph 29.9 mph N/A   Overcast
4:36 AM 28.4 °F 16.2 °F 21.2 °F 74% 29.46 in 10.0 mi North 17.3 mph 26.5 mph N/A   Overcast
4:56 AM 28.4 °F 15.1 °F 21.2 °F 74% 29.46 in 10.0 mi NNW 20.7 mph 32.2 mph N/A   Overcast
5:16 AM 28.4 °F 15.1 °F 19.4 °F 69% 29.48 in 10.0 mi North 20.7 mph 33.4 mph N/A   Overcast
5:36 AM 28.4 °F 14.4 °F 19.4 °F 69% 29.49 in 10.0 mi North 23.0 mph 33.4 mph N/A   Overcast
5:56 AM 28.4 °F 15.1 °F 19.4 °F 69% 29.50 in 10.0 mi North 20.7 mph 27.6 mph N/A   Overcast
6:16 AM 28.4 °F 14.7 °F 21.2 °F 74% 29.51 in 4.0 mi NNW 21.9 mph 32.2 mph N/A   Mostly Cloudy
6:36 AM 28.4 °F 15.1 °F 21.2 °F 74% 29.52 in 10.0 mi NNW 20.7 mph 33.4 mph N/A   Mostly Cloudy
6:56 AM 28.4 °F 16.2 °F 24.8 °F 86% 29.53 in 4.0 mi NNW 17.3 mph 31.1 mph N/A   Overcast
7:16 AM 28.4 °F 14.4 °F 21.2 °F 74% 29.54 in 10.0 mi NNW 23.0 mph 33.4 mph N/A   Mostly Cloudy
7:36 AM 28.4 °F 12.7 °F 19.4 °F 69% 29.54 in 5.0 mi NNW 29.9 mph 35.7 mph N/A   Mostly Cloudy
7:56 AM 28.4 °F 15.4 °F 21.2 °F 74% 29.55 in 10.0 mi NNW 19.6 mph 29.9 mph N/A   Overcast
8:16 AM 26.6 °F 12.7 °F 19.4 °F 74% 29.57 in 10.0 mi NW 20.7 mph 38.0 mph N/A   Mostly Cloudy
8:36 AM 28.4 °F 15.1 °F 19.4 °F 69% 29.58 in 10.0 mi NNW 20.7 mph 31.1 mph N/A   Mostly Cloudy
8:56 AM 28.4 °F 14.4 °F 19.4 °F 69% 29.59 in 7.0 mi NNW 23.0 mph 33.4 mph 0.01 in   Mostly Cloudy
9:16 AM 26.6 °F 11.7 °F 19.4 °F 74% 29.59 in 10.0 mi NNW 24.2 mph 34.5 mph N/A   Scattered Clouds
9:36 AM 26.6 °F 12.7 °F 19.4 °F 74% 29.62 in 9.0 mi NNW 20.7 mph 31.1 mph N/A   Scattered Clouds
9:56 AM 28.4 °F 14.1 °F 17.6 °F 64% 29.62 in 10.0 mi NNW 24.2 mph 32.2 mph N/A   Overcast
10:16 AM 26.6 °F 12.7 °F 19.4 °F 74% 29.63 in 5.0 mi NNW 20.7 mph 29.9 mph N/A   Overcast
10:36 AM 28.4 °F 13.8 °F 19.4 °F 69% 29.64 in 10.0 mi NNW 25.3 mph 29.9 mph N/A   Overcast
10:56 AM 28.4 °F 15.4 °F 17.6 °F 64% 29.65 in 10.0 mi NNW 19.6 mph 27.6 mph N/A   Overcast
11:16 AM 26.6 °F 13.1 °F 19.4 °F 74% 29.66 in 3.0 mi NW 19.6 mph 24.2 mph N/A   Mostly Cloudy
11:36 AM 28.4 °F 14.7 °F 15.8 °F 59% 29.67 in 10.0 mi NNW 21.9 mph 29.9 mph N/A   Overcast
11:56 AM 26.6 °F 12.4 °F 21.2 °F 80% 29.68 in 3.0 mi North 21.9 mph 27.6 mph N/A   Mostly Cloudy
12:16 PM 26.6 °F 12.7 °F 21.2 °F 80% 29.69 in 8.0 mi North 20.7 mph 32.2 mph N/A   Mostly Cloudy
12:36 PM 26.6 °F 13.4 °F 21.2 °F 80% 29.69 in 1.5 mi NNW 18.4 mph 25.3 mph N/A   Overcast
12:56 PM 28.4 °F 13.5 °F 17.6 °F 64% 29.69 in 7.0 mi North 26.5 mph 32.2 mph N/A   Overcast
1:16 PM 26.6 °F 16.2 °F 21.2 °F 80% 29.69 in 1.8 mi NNW 11.5 mph 27.6 mph N/A   Overcast
1:36 PM 28.4 °F 16.2 °F 15.8 °F 59% 29.69 in 10.0 mi NNW 17.3 mph 27.6 mph N/A   Overcast
1:56 PM 28.4 °F 15.4 °F 15.8 °F 59% 29.69 in 10.0 mi NNW 19.6 mph 26.5 mph N/A   Overcast
2:16 PM 28.4 °F 17.5 °F 19.4 °F 69% 29.70 in 10.0 mi NNW 13.8 mph 17.3 mph N/A   Overcast
2:36 PM 28.4 °F 16.6 °F 17.6 °F 64% 29.71 in 10.0 mi NNW 16.1 mph 19.6 mph N/A   Overcast
2:56 PM 26.6 °F 14.3 °F 19.4 °F 74% 29.71 in 2.0 mi NW 16.1 mph 24.2 mph N/A   Overcast
3:16 PM 28.4 °F 15.1 °F 17.6 °F 64% 29.71 in 10.0 mi North 20.7 mph - N/A   Overcast
3:36 PM 28.4 °F 16.2 °F 17.6 °F 64% 29.70 in 10.0 mi NNW 17.3 mph 24.2 mph N/A   Overcast
3:56 PM 28.4 °F 17.5 °F 17.6 °F 64% 29.71 in 10.0 mi NNW 13.8 mph 18.4 mph N/A   Overcast
4:16 PM 26.6 °F 15.2 °F 19.4 °F 74% 29.71 in 4.0 mi NNW 13.8 mph 24.2 mph 0.01 in   Overcast
4:36 PM 28.4 °F 16.6 °F 17.6 °F 64% 29.72 in 10.0 mi NNW 16.1 mph 23.0 mph 0.01 in   Overcast
4:56 PM 28.4 °F 16.2 °F 15.8 °F 59% 29.72 in 10.0 mi NNW 17.3 mph 25.3 mph 0.01 in   Overcast
5:16 PM 26.6 °F 13.8 °F 17.6 °F 69% 29.72 in 9.0 mi NNW 17.3 mph 25.3 mph N/A   Overcast
5:36 PM 26.6 °F 13.1 °F 15.8 °F 64% 29.72 in 10.0 mi North 19.6 mph 25.3 mph N/A   Overcast
5:56 PM 26.6 °F 13.1 °F 15.8 °F 64% 29.71 in 10.0 mi North 19.6 mph 26.5 mph N/A   Overcast
6:16 PM 26.6 °F 13.1 °F 17.6 °F 69% 29.70 in 10.0 mi North 19.6 mph - N/A   Overcast
6:36 PM 26.6 °F 13.8 °F 17.6 °F 69% 29.71 in 10.0 mi NNW 17.3 mph - N/A   Overcast
6:56 PM 26.6 °F 12.7 °F 15.8 °F 64% 29.72 in 10.0 mi North 20.7 mph 27.6 mph N/A   Overcast
7:16 PM 26.6 °F 15.2 °F 14.0 °F 59% 29.74 in 10.0 mi NNW 13.8 mph 24.2 mph N/A   Overcast
7:36 PM 26.6 °F 14.3 °F 15.8 °F 64% 29.73 in 10.0 mi North 16.1 mph 24.2 mph N/A   Overcast
7:56 PM 26.6 °F 13.4 °F 14.0 °F 59% 29.73 in 10.0 mi North 18.4 mph 23.0 mph N/A   Overcast
8:16 PM 26.6 °F 13.1 °F 15.8 °F 64% 29.71 in 10.0 mi North 19.6 mph 23.0 mph N/A   Overcast
8:36 PM 26.6 °F 15.7 °F 17.6 °F 69% 29.72 in 10.0 mi NNW 12.7 mph 23.0 mph N/A   Overcast
8:56 PM 26.6 °F 16.8 °F 15.8 °F 64% 29.72 in 10.0 mi North 10.4 mph 17.3 mph N/A   Overcast
9:16 PM 26.6 °F 16.2 °F 15.8 °F 64% 29.72 in 10.0 mi NNW 11.5 mph - N/A   Overcast
9:36 PM 26.6 °F 17.5 °F 15.8 °F 64% 29.72 in 10.0 mi NNW 9.2 mph - N/A   Overcast
9:56 PM 26.6 °F 17.5 °F 15.8 °F 64% 29.70 in 10.0 mi NNW 9.2 mph - N/A   Overcast
10:16 PM 26.6 °F 18.2 °F 19.4 °F 74% 29.70 in 9.0 mi NNW 8.1 mph - N/A   Overcast
10:36 PM 26.6 °F 16.8 °F 17.6 °F 69% 29.70 in 10.0 mi North 10.4 mph - N/A   Overcast
10:56 PM 26.6 °F 15.7 °F 15.8 °F 64% 29.69 in 10.0 mi NNW 12.7 mph - N/A   Overcast
11:16 PM 26.6 °F 16.2 °F 12.2 °F 55% 29.68 in 10.0 mi North 11.5 mph - N/A   Overcast
11:36 PM 26.6 °F 19.1 °F 15.8 °F 64% 29.67 in 10.0 mi North 6.9 mph - N/A   Overcast
11:56 PM 26.6 °F 18.2 °F 15.8 °F 64% 29.66 in 10.0 mi North 8.1 mph - N/A   Overcast